20060723,000021,1382400,33.938891,-123.146590,24.2,16.953,32.894,42.431,1041.12,0.0,0.748,16.785, NaN, NaN,23.910,   NaN,17.19,1010.43,97.67,17.19,290.0,293.0,8.4,6.6,306.8,299.7,8.3,6.6,NaN, NaN,22.0,53.9,66.5,1153612821,1153612820,2,10.7,000021,000020,54.2,33.938865,-123.146807,9.99,NaN,NaN,16.957, NaN,NaN,NaN, NaN, NaN
20060723,000051,1382431,33.939546,-123.145095,24.4,16.926,32.890,42.401,1014.76,0.0,0.748,16.751, NaN, NaN,23.913,   NaN,17.09,1010.49,97.61,17.09,290.0,291.0,7.3,6.3,302.0,296.8,7.4,6.6,NaN, NaN,22.0,53.5,66.5,1153612851,1153612850,2,10.1,000051,000050,53.2,33.939515,-123.145307,9.99,NaN,NaN,16.930, NaN,NaN,NaN, NaN, NaN
20060723,000121,1382461,33.940195,-123.143600,24.5,16.889,32.891,42.368,999.48,0.0,0.711,16.719, NaN, NaN,23.922,   NaN,17.22,1010.52,97.64,17.22,284.0,287.0,9.3,6.5,306.6,296.8,9.5,7.0,NaN, NaN,22.0,54.1,66.2,1153612881,1153612880,2,9.8,000081,000080,54.1,33.940166,-123.143818,9.97,NaN,NaN,16.893, NaN,NaN,NaN, NaN, NaN
20060723,000152,1382491,33.940866,-123.142065,24.6,16.856,32.893,42.339,977.61,0.0,0.711,16.680, NaN, NaN,23.932,   NaN,17.09,1010.59,97.71,17.09,275.0,286.0,9.3,6.4,297.9,294.3,10.3,7.1,NaN, NaN,23.0,53.2,63.9,1153612912,1153612911,2,10.2,000112,000111,53.2,33.940843,-123.142280,9.86,NaN,NaN,16.860, NaN,NaN,NaN, NaN, NaN
20060723,000221,1382520,33.941508,-123.140643,25.0,16.816,32.886,42.292,950.94,0.0,0.692,16.656, NaN, NaN,23.936,   NaN,17.09,1010.67,97.64,17.09,286.0,285.0,8.1,5.4,303.6,288.1,8.3,6.4,NaN, NaN,21.0,53.8,56.6,1153612941,1153612940,2,9.8,000141,000140,53.8,33.941475,-123.140840,9.89,NaN,NaN,16.820, NaN,NaN,NaN, NaN, NaN
20060723,000252,1382552,33.942173,-123.139082,24.8,16.788,32.888,42.268,903.90,0.0,0.730,16.638, NaN, NaN,23.943,   NaN,17.13,1010.59,97.74,17.13,290.0,296.0,9.0,7.2,311.5,307.8,8.7,6.7,NaN, NaN,21.0,55.2,60.2,1153612972,1153612971,2,9.9,000172,000171,55.2,33.942148,-123.139290,10.06,NaN,NaN,16.792, NaN,NaN,NaN, NaN, NaN
20060723,000321,1382580,33.942785,-123.137623,24.5,16.768,32.889,42.251,897.31,0.0,0.786,16.677, NaN, NaN,23.949,   NaN,17.09,1010.70,97.77,17.09,305.0,303.0,7.8,7.7,318.1,315.8,6.4,6.5,NaN, NaN,22.0,54.1,66.0,1153613001,1153613000,2,10.3,000201,000200,54.1,33.942760,-123.137838,9.77,NaN,NaN,16.772, NaN,NaN,NaN, NaN, NaN
20060723,000352,1382611,33.943461,-123.136100,25.0,16.756,32.895,42.247,897.61,0.0,0.842,16.721, NaN, NaN,23.956,   NaN,17.09,1010.73,97.77,17.09,292.0,301.0,10.0,8.8,315.6,319.8,9.4,7.6,NaN, NaN,22.0,54.2,57.5,1153613032,1153613031,2,10.1,000232,000231,54.2,33.943431,-123.136297,9.80,NaN,NaN,16.760, NaN,NaN,NaN, NaN, NaN
20060723,000421,1382641,33.944068,-123.134667,24.6,16.912,32.912,42.412,842.78,0.0,0.991,16.761, NaN, NaN,23.933,   NaN,17.22,1010.73,97.84,17.22,298.0,304.0,8.5,8.2,315.8,320.0,7.6,6.8,NaN, NaN,21.0,54.5,63.7,1153613061,1153613060,2,9.8,000261,000260,54.5,33.944041,-123.134855,9.82,NaN,NaN,16.916, NaN,NaN,NaN, NaN, NaN
20060723,000451,1382670,33.944713,-123.133175,24.6,17.000,32.927,42.513,810.43,0.0,1.028,16.808, NaN, NaN,23.924,   NaN,17.19,1010.81,97.80,17.16,302.0,307.0,9.1,9.2,321.1,326.6,7.7,7.4,NaN, NaN,20.0,53.5,63.9,1153613091,1153613090,2,10.0,000291,000290,53.5,33.944691,-123.133362,9.88,NaN,NaN,17.004, NaN,NaN,NaN, NaN, NaN
20060723,000521,1382700,33.945356,-123.131697,24.8,17.040,32.944,42.570,785.26,0.0,1.066,16.845, NaN, NaN,23.927,   NaN,17.19,1010.94,97.90,17.19,309.0,310.0,7.8,8.2,321.3,324.8,6.1,6.3,NaN, NaN,19.0,53.0,61.7,1153613121,1153613120,2,9.7,000321,000320,53.0,33.945330,-123.131877,9.72,NaN,NaN,17.044, NaN,NaN,NaN, NaN, NaN
20060723,000552,1382731,33.946031,-123.130177,25.1,17.076,32.950,42.613,801.14,0.0,1.140,16.873, NaN, NaN,23.924,   NaN,17.16,1010.97,97.84,17.19,308.0,310.0,8.4,8.7,324.9,328.5,6.6,6.7,NaN, NaN,19.0,54.2,58.6,1153613152,1153613151,2,9.7,000352,000351,54.2,33.946010,-123.130362,9.81,NaN,NaN,17.080, NaN,NaN,NaN, NaN, NaN
20060723,000622,1382761,33.946675,-123.128690,24.8,17.101,32.952,42.639,802.94,0.0,1.178,16.881, NaN, NaN,23.919,   NaN,17.19,1010.81,97.77,17.19,300.0,309.0,8.9,8.7,318.8,326.7,7.7,6.8,NaN, NaN,19.0,53.9,58.3,1153613182,1153613181,2,10.0,000382,000381,53.9,33.946648,-123.128870,9.79,NaN,NaN,17.105, NaN,NaN,NaN, NaN, NaN
20060723,000652,1382791,33.947311,-123.127183,24.3,17.095,32.955,42.636,775.37,0.0,1.215,16.881, NaN, NaN,23.923,   NaN,17.22,1010.79,97.87,17.22,306.0,308.0,8.5,8.4,321.1,322.5,6.9,6.6,NaN, NaN,19.0,53.2,64.9,1153613212,1153613211,2,10.1,000412,000411,53.2,33.947285,-123.127365,9.96,NaN,NaN,17.099, NaN,NaN,NaN, NaN, NaN
20060723,000721,1382820,33.947941,-123.125748,24.4,17.079,32.959,42.625,768.48,0.0,1.253,16.876, NaN, NaN,23.930,   NaN,17.22,1010.81,97.84,17.22,288.0,304.0,9.4,8.3,309.0,318.6,9.2,6.9,NaN, NaN,19.0,53.7,63.6,1153613241,1153613240,2,10.3,000441,000440,53.7,33.947915,-123.125925,9.80,NaN,NaN,17.083, NaN,NaN,NaN, NaN, NaN
20060723,000752,1382852,33.948610,-123.124193,24.6,17.060,32.960,42.609,770.28,0.0,1.253,16.863, NaN, NaN,23.935,   NaN,17.19,1010.86,97.87,17.19,307.0,308.0,8.3,8.5,321.8,324.1,6.6,6.7,NaN, NaN,20.0,54.0,64.5,1153613272,1153613271,2,10.2,000472,000471,54.0,33.948591,-123.124377,9.94,NaN,NaN,17.064, NaN,NaN,NaN, NaN, NaN
20060723,000821,1382880,33.949235,-123.122760,24.7,17.042,32.961,42.592,807.43,0.0,1.271,16.853, NaN, NaN,23.940,   NaN,17.19,1010.79,97.80,17.19,292.0,298.0,10.3,9.2,316.5,318.4,9.6,8.2,NaN, NaN,20.0,54.2,60.0,1153613301,1153613300,2,10.1,000501,000500,54.2,33.949218,-123.122937,9.85,NaN,NaN,17.046, NaN,NaN,NaN, NaN, NaN
20060723,000851,1382910,33.949861,-123.121257,24.3,17.021,32.964,42.576,823.01,0.0,1.253,16.839, NaN, NaN,23.947,   NaN,17.16,1010.89,97.77,17.16,291.0,295.0,8.8,8.0,310.3,310.1,8.5,7.4,NaN, NaN,19.0,53.9,65.8,1153613331,1153613330,2,9.8,000531,000530,53.9,33.949843,-123.121435,9.75,NaN,NaN,17.025, NaN,NaN,NaN, NaN, NaN
20060723,000921,1382941,33.950511,-123.119757,25.0,17.006,32.962,42.559,811.03,0.0,1.271,16.819, NaN, NaN,23.949,   NaN,17.13,1010.79,97.80,17.13,291.0,299.0,9.1,8.1,310.8,313.3,8.7,7.2,NaN, NaN,19.0,54.0,59.6,1153613361,1153613360,2,10.3,000561,000560,54.0,33.950493,-123.119925,9.93,NaN,NaN,17.010, NaN,NaN,NaN, NaN, NaN
20060723,000951,1382971,33.951161,-123.118243,24.4,16.983,32.963,42.539,828.10,0.0,1.253,16.798, NaN, NaN,23.955,   NaN,17.09,1010.70,97.77,17.09,286.0,295.0,10.0,8.2,310.2,311.1,9.9,7.6,NaN, NaN,19.0,54.7,62.8,1153613391,1153613390,2,10.2,000591,000590,54.7,33.951138,-123.118418,10.01,NaN,NaN,16.987, NaN,NaN,NaN, NaN, NaN
20060723,001021,1383000,33.951821,-123.116743,25.1,16.958,32.966,42.519,826.90,0.0,1.215,16.779, NaN, NaN,23.963,   NaN,17.13,1010.76,97.77,17.13,289.0,289.0,9.0,6.7,309.1,298.8,8.8,7.0,NaN, NaN,19.0,54.0,58.2,1153613421,1153613420,2,10.0,000621,000620,54.0,33.951793,-123.116915,9.94,NaN,NaN,16.962, NaN,NaN,NaN, NaN, NaN
20060723,001052,1383032,33.952496,-123.115183,24.1,16.938,32.963,42.497,835.59,0.0,1.215,16.761, NaN, NaN,23.966,   NaN,17.13,1010.64,97.87,17.13,293.0,299.0,8.7,8.0,310.6,312.6,8.2,7.2,NaN, NaN,18.0,53.9,63.4,1153613452,1153613451,2,10.4,000652,000651,53.9,33.952473,-123.115358,9.77,NaN,NaN,16.942, NaN,NaN,NaN, NaN, NaN
20060723,001121,1383060,33.953136,-123.113723,24.7,16.920,32.966,42.482,831.40,0.0,1.215,16.740, NaN, NaN,23.972,   NaN,17.13,1010.64,97.90,17.13,291.0,296.0,9.2,7.9,311.1,309.8,8.8,7.4,NaN, NaN,19.0,54.2,60.7,1153613481,1153613480,2,10.4,000681,000680,54.2,33.953111,-123.113902,9.90,NaN,NaN,16.924, NaN,NaN,NaN, NaN, NaN
20060723,001151,1383090,33.953808,-123.112200,24.9,16.896,32.969,42.464,804.13,0.0,1.140,16.724, NaN, NaN,23.980,   NaN,17.80,1010.91,98.60,17.70,291.0,297.0,8.0,7.5,306.0,307.9,7.9,6.9,NaN, NaN,19.0,54.0,63.9,1153613511,1153613510,2,10.1,000711,000710,53.7,33.953778,-123.112378,10.08,NaN,NaN,16.900, NaN,NaN,NaN, NaN, NaN
20060723,001221,1383121,33.954456,-123.110672,24.7,16.872,32.972,42.444,782.86,0.0,1.159,16.696, NaN, NaN,23.988,   NaN,17.24,1010.73,98.02,17.24,295.0,297.0,7.4,7.0,305.3,304.8,7.1,6.6,NaN, NaN,19.0,53.2,63.0,1153613541,1153613540,2,10.3,000741,000740,53.2,33.954425,-123.110848,9.79,NaN,NaN,16.876, NaN,NaN,NaN, NaN, NaN
20060723,001251,1383151,33.955118,-123.109152,24.4,16.843,32.975,42.420,758.89,0.0,1.122,16.680, NaN, NaN,23.997,   NaN,17.13,1010.86,97.90,17.13,298.0,302.0,7.4,7.3,309.1,311.4,6.8,6.3,NaN, NaN,18.0,54.2,63.5,1153613571,1153613570,2,10.1,000771,000770,54.2,33.955100,-123.109330,9.86,NaN,NaN,16.847, NaN,NaN,NaN, NaN, NaN
20060723,001321,1383180,33.955771,-123.107622,24.4,16.820,32.978,42.402,748.71,0.0,1.140,16.663, NaN, NaN,24.005,   NaN,17.03,1010.89,97.95,17.03,294.0,302.0,8.3,7.9,308.0,313.1,7.8,6.8,NaN, NaN,17.0,51.5,61.8,1153613601,1153613600,2,10.0,000801,000800,51.5,33.955760,-123.107807,10.07,NaN,NaN,16.824, NaN,NaN,NaN, NaN, NaN
20060723,001351,1383210,33.956496,-123.106173,24.6,16.807,32.979,42.391,743.91,0.0,1.122,16.653, NaN, NaN,24.009,   NaN,17.06,1010.67,97.95,17.06,291.0,298.0,9.6,8.4,311.2,312.7,9.1,7.5,NaN, NaN,19.0,52.0,58.1,1153613631,1153613630,2,10.2,000831,000830,52.0,33.956461,-123.106343,9.71,NaN,NaN,16.811, NaN,NaN,NaN, NaN, NaN
20060723,001421,1383240,33.957188,-123.104708,25.0,16.799,32.981,42.386,737.62,0.0,1.066,16.633, NaN, NaN,24.012,   NaN,17.09,1010.86,97.93,17.13,296.0,301.0,9.1,8.4,313.6,315.3,8.3,7.3,NaN, NaN,19.0,52.0,60.5,1153613661,1153613660,2,10.0,000861,000860,52.0,33.957161,-123.104883,9.90,NaN,NaN,16.803, NaN,NaN,NaN, NaN, NaN
20060723,001451,1383270,33.957875,-123.103237,24.6,16.800,32.981,42.386,746.91,0.0,1.084,16.611, NaN, NaN,24.012,   NaN,17.06,1010.86,97.93,17.06,299.0,304.0,8.4,8.5,314.2,319.5,7.4,7.1,NaN, NaN,19.0,52.5,60.9,1153613691,1153613690,2,10.2,000891,000890,52.5,33.957848,-123.103405,9.77,NaN,NaN,16.804, NaN,NaN,NaN, NaN, NaN
20060723,001522,1383301,33.958610,-123.101700,24.6,16.755,32.991,42.355,755.60,0.0,1.122,16.575, NaN, NaN,24.030,   NaN,18.20,1010.62,98.97,18.20,306.0,306.0,7.4,8.8,311.7,319.7,6.1,7.1,NaN, NaN,19.0,50.7,61.9,1153613722,1153613721,2,10.2,000922,000921,50.7,33.958578,-123.101873,9.73,NaN,NaN,16.759, NaN,NaN,NaN, NaN, NaN
20060723,001551,1383330,33.959306,-123.100275,24.5,16.719,32.996,42.327,778.37,0.0,1.122,16.544, NaN, NaN,24.042,   NaN,17.19,1010.79,98.02,17.19,297.0,303.0,10.1,9.7,317.4,321.9,9.0,8.2,NaN, NaN,19.0,51.9,61.5,1153613751,1153613750,2,10.3,000951,000950,51.9,33.959280,-123.100448,9.82,NaN,NaN,16.723, NaN,NaN,NaN, NaN, NaN
20060723,001621,1383360,33.960023,-123.098792,24.2,16.681,33.003,42.299,802.34,0.0,1.178,16.535, NaN, NaN,24.057,   NaN,17.09,1010.73,97.93,17.09,292.0,299.0,10.1,8.6,313.3,314.0,9.5,7.6,NaN, NaN,19.0,52.2,57.0,1153613781,1153613780,2,10.3,000981,000980,52.2,33.959996,-123.098967,9.90,NaN,NaN,16.685, NaN,NaN,NaN, NaN, NaN
20060723,001651,1383390,33.960741,-123.097317,24.5,16.649,33.005,42.271,770.28,0.0,1.140,16.544, NaN, NaN,24.065,   NaN,17.06,1010.67,97.90,17.06,291.0,300.0,10.7,8.7,313.4,314.5,10.1,7.6,NaN, NaN,19.0,51.7,54.6,1153613811,1153613810,2,10.4,001011,001010,51.7,33.960711,-123.097482,9.98,NaN,NaN,16.653, NaN,NaN,NaN, NaN, NaN
20060723,001722,1383421,33.961476,-123.095792,24.9,16.668,33.015,42.301,763.39,0.0,1.066,16.556, NaN, NaN,24.069,   NaN,17.06,1010.79,97.95,17.06,300.0,305.0,8.0,8.0,312.2,316.6,7.0,6.6,NaN, NaN,19.0,52.0,56.0,1153613842,1153613841,2,9.9,001042,001041,52.0,33.961445,-123.095958,9.79,NaN,NaN,16.672, NaN,NaN,NaN, NaN, NaN
20060723,001751,1383451,33.962168,-123.094370,24.3,16.746,33.017,42.377,797.84,0.0,1.066,16.559, NaN, NaN,24.052,   NaN,17.06,1010.73,97.95,17.00,297.0,305.0,9.4,8.9,314.5,320.1,8.4,7.3,NaN, NaN,19.0,51.2,59.9,1153613871,1153613870,2,10.4,001071,001070,51.2,33.962140,-123.094538,9.85,NaN,NaN,16.750, NaN,NaN,NaN, NaN, NaN
20060723,001821,1383481,33.962898,-123.092902,25.3,16.760,33.026,42.401,854.77,0.0,1.159,16.559, NaN, NaN,24.056,   NaN,17.06,1010.73,97.98,17.06,296.0,300.0,9.3,8.2,314.2,312.9,8.4,7.2,NaN, NaN,19.0,52.2,56.0,1153613901,1153613900,2,10.1,001101,001100,52.2,33.962870,-123.093063,10.01,NaN,NaN,16.764, NaN,NaN,NaN, NaN, NaN
20060723,001851,1383510,33.963601,-123.091425,24.4,16.744,33.032,42.392,857.76,0.0,1.159,16.562, NaN, NaN,24.064,   NaN,17.03,1010.70,97.93,17.03,294.0,298.0,9.1,7.5,310.5,306.6,8.4,6.8,NaN, NaN,19.0,50.7,63.8,1153613931,1153613930,2,10.1,001131,001130,50.7,33.963571,-123.091588,10.00,NaN,NaN,16.748, NaN,NaN,NaN, NaN, NaN
20060723,001921,1383540,33.964333,-123.089960,24.8,16.731,33.035,42.383,799.94,0.0,1.159,16.559, NaN, NaN,24.069,   NaN,17.06,1010.67,97.95,17.06,292.0,301.0,10.4,9.2,313.7,317.8,9.7,7.9,NaN, NaN,19.0,51.7,56.5,1153613961,1153613960,2,10.3,001161,001160,51.7,33.964306,-123.090122,9.91,NaN,NaN,16.735, NaN,NaN,NaN, NaN, NaN
20060723,001951,1383570,33.965041,-123.088465,24.1,16.733,33.036,42.386,728.04,0.0,1.178,16.559, NaN, NaN,24.069,   NaN,17.09,1010.79,97.95,17.09,298.0,304.0,8.2,8.3,309.7,315.7,7.4,6.9,NaN, NaN,19.0,51.4,61.4,1153613991,1153613990,2,10.3,001191,001190,51.4,33.965026,-123.088633,10.14,NaN,NaN,16.737, NaN,NaN,NaN, NaN, NaN
20060723,002021,1383600,33.965758,-123.086988,24.9,16.721,33.037,42.376,718.45,0.0,1.178,16.559, NaN, NaN,24.073,   NaN,17.06,1010.59,97.98,17.06,295.0,301.0,9.8,9.1,315.2,318.1,9.0,7.8,NaN, NaN,19.0,52.6,60.1,1153614021,1153614020,2,10.2,001221,001220,52.6,33.965745,-123.087158,10.11,NaN,NaN,16.725, NaN,NaN,NaN, NaN, NaN
20060723,002051,1383631,33.966480,-123.085542,24.7,16.721,33.041,42.380,749.31,0.0,1.234,16.559, NaN, NaN,24.076,   NaN,17.06,1010.73,97.95,17.06,291.0,299.0,10.5,8.1,313.9,312.0,9.9,7.2,NaN, NaN,19.0,51.9,56.9,1153614051,1153614050,2,10.1,001251,001250,51.9,33.966460,-123.085708,10.12,NaN,NaN,16.725, NaN,NaN,NaN, NaN, NaN
20060723,002121,1383660,33.967178,-123.084083,25.0,16.726,33.041,42.385,800.54,0.0,1.290,16.564, NaN, NaN,24.075,   NaN,17.06,1010.49,97.95,17.06,292.0,297.0,10.1,8.9,313.9,314.3,9.5,8.0,NaN, NaN,19.0,52.2,57.2,1153614081,1153614080,2,10.4,001281,001280,52.2,33.967151,-123.084247,10.08,NaN,NaN,16.730, NaN,NaN,NaN, NaN, NaN
20060723,002151,1383690,33.967893,-123.082658,24.5,16.736,33.051,42.407,844.58,0.0,1.290,16.590, NaN, NaN,24.081,   NaN,17.06,1010.52,98.02,17.06,292.0,297.0,9.5,8.8,308.8,310.9,8.9,8.0,NaN, NaN,19.0,48.7,55.9,1153614111,1153614110,2,9.9,001311,001310,48.7,33.967865,-123.082830,9.92,NaN,NaN,16.740, NaN,NaN,NaN, NaN, NaN
20060723,002221,1383720,33.968636,-123.081263,24.5,16.749,33.065,42.435,866.45,0.0,1.234,16.648, NaN, NaN,24.088,   NaN,17.06,1010.38,98.02,17.06,291.0,294.0,9.2,7.5,307.6,302.8,8.8,7.2,NaN, NaN,19.0,49.7,63.7,1153614141,1153614140,2,10.3,001341,001340,50.4,33.968601,-123.081432,9.90,NaN,NaN,16.753, NaN,NaN,NaN, NaN, NaN
20060723,002251,1383750,33.969400,-123.079853,24.8,16.799,33.088,42.508,838.89,0.0,1.253,16.727, NaN, NaN,24.094,   NaN,17.09,1010.38,98.05,17.09,290.0,297.0,10.7,9.0,311.5,312.3,10.2,8.1,NaN, NaN,17.0,50.2,54.8,1153614171,1153614170,2,10.2,001371,001370,50.2,33.969361,-123.080025,10.05,NaN,NaN,16.803, NaN,NaN,NaN, NaN, NaN
20060723,002321,1383781,33.970140,-123.078448,24.5,16.952,33.133,42.706,770.28,0.0,1.383,16.819, NaN, NaN,24.093,   NaN,17.13,1010.52,98.02,17.13,297.0,300.0,8.7,8.2,311.1,311.4,7.8,7.2,NaN, NaN,16.0,49.9,56.7,1153614201,1153614200,2,10.0,001401,001400,49.9,33.970098,-123.078620,10.00,NaN,NaN,16.956, NaN,NaN,NaN, NaN, NaN
20060723,002351,1383811,33.970888,-123.077040,25.0,17.080,33.165,42.864,743.32,0.0,1.514,16.918, NaN, NaN,24.087,   NaN,17.09,1010.47,98.05,17.09,297.0,301.0,10.5,9.2,318.0,317.5,9.3,7.9,NaN, NaN,16.0,50.0,54.4,1153614231,1153614230,2,10.0,001431,001430,50.0,33.970848,-123.077215,9.84,NaN,NaN,17.084, NaN,NaN,NaN, NaN, NaN
20060723,002421,1383840,33.971651,-123.075633,24.6,17.209,33.213,43.043,769.68,0.0,1.738,17.009, NaN, NaN,24.094,   NaN,17.09,1010.45,98.11,17.09,295.0,301.0,9.5,9.1,312.7,316.9,8.7,7.8,NaN, NaN,16.0,50.2,55.6,1153614261,1153614260,2,10.0,001461,001460,50.2,33.971605,-123.075800,9.98,NaN,NaN,17.213, NaN,NaN,NaN, NaN, NaN
20060723,002451,1383870,33.972391,-123.074220,24.7,17.327,33.260,43.210,802.94,0.0,1.869,17.094, NaN, NaN,24.102,   NaN,17.22,1010.38,98.05,17.22,286.0,294.0,11.5,8.6,309.8,308.4,11.2,8.1,NaN, NaN,15.0,49.7,51.2,1153614291,1153614290,2,9.8,001491,001490,49.7,33.972348,-123.074392,9.68,NaN,NaN,17.331, NaN,NaN,NaN, NaN, NaN
20060723,002521,1383900,33.973140,-123.072808,24.5,17.406,33.278,43.306,828.70,0.0,2.000,17.178, NaN, NaN,24.097,   NaN,17.16,1010.30,98.11,17.16,296.0,298.0,10.4,9.3,315.4,313.6,9.4,8.3,NaN, NaN,15.0,49.0,54.3,1153614321,1153614320,2,10.1,001521,001520,49.0,33.973093,-123.072977,10.07,NaN,NaN,17.410, NaN,NaN,NaN, NaN, NaN
20060723,002551,1383930,33.973878,-123.071388,24.5,17.476,33.304,43.403,809.23,0.0,2.075,17.245, NaN, NaN,24.100,   NaN,17.24,1010.32,98.08,17.24,289.0,289.0,9.0,7.2,305.4,297.4,8.8,7.3,NaN, NaN,16.0,50.0,58.4,1153614351,1153614350,2,10.0,001551,001550,50.0,33.973841,-123.071558,9.94,NaN,NaN,17.480, NaN,NaN,NaN, NaN, NaN
20060723,002621,1383961,33.974620,-123.069965,24.6,17.559,33.321,43.504,761.59,0.0,2.131,17.316, NaN, NaN,24.093,   NaN,17.16,1010.18,98.02,17.16,288.0,290.0,9.5,7.4,306.5,299.7,9.3,7.4,NaN, NaN,16.0,49.9,60.0,1153614381,1153614380,2,9.9,001581,001580,49.9,33.974595,-123.070140,9.96,NaN,NaN,17.563, NaN,NaN,NaN, NaN, NaN
20060723,002651,1383991,33.975368,-123.068558,25.1,17.606,33.341,43.572,812.52,0.0,2.149,17.376, NaN, NaN,24.098,   NaN,17.22,1010.27,98.15,17.22,290.0,298.0,9.4,8.2,307.5,309.7,9.0,7.3,NaN, NaN,16.0,49.5,52.8,1153614411,1153614410,2,9.9,001611,001610,49.5,33.975333,-123.068722,9.93,NaN,NaN,17.610, NaN,NaN,NaN, NaN, NaN
20060723,002721,1384020,33.976101,-123.067157,24.1,17.674,33.355,43.654,793.65,0.0,2.205,17.424, NaN, NaN,24.092,   NaN,17.22,1010.27,98.05,17.27,287.0,294.0,10.1,7.9,306.7,304.7,9.9,7.5,NaN, NaN,16.0,49.2,58.1,1153614441,1153614440,2,9.8,001641,001640,49.2,33.976068,-123.067325,9.94,NaN,NaN,17.678, NaN,NaN,NaN, NaN, NaN
20060723,002751,1384050,33.976836,-123.065777,25.5,17.726,33.365,43.716,755.60,0.0,2.280,17.448, NaN, NaN,24.087,   NaN,17.24,1010.18,98.08,17.24,290.0,297.0,8.5,7.8,306.2,309.0,8.2,7.1,NaN, NaN,16.0,50.5,55.3,1153614471,1153614470,2,9.6,001671,001670,50.5,33.976805,-123.065945,9.95,NaN,NaN,17.730, NaN,NaN,NaN, NaN, NaN
20060723,002821,1384080,33.977551,-123.064383,24.9,17.735,33.373,43.733,715.45,0.0,2.336,17.458, NaN, NaN,24.091,   NaN,17.24,1010.16,98.05,17.24,286.0,291.0,9.2,7.5,303.4,300.4,9.2,7.4,NaN, NaN,16.0,49.2,56.2,1153614501,1153614500,2,10.0,001701,001700,49.2,33.977518,-123.064543,10.02,NaN,NaN,17.739, NaN,NaN,NaN, NaN, NaN
20060723,002851,1384110,33.978291,-123.062992,24.3,17.718,33.381,43.726,706.16,0.0,2.448,17.464, NaN, NaN,24.101,   NaN,17.27,1010.22,98.05,17.27,280.0,292.0,8.3,6.4,295.9,295.8,9.0,6.5,NaN, NaN,16.0,50.0,55.3,1153614531,1153614530,2,10.0,001731,001730,50.0,33.978260,-123.063160,10.06,NaN,NaN,17.722, NaN,NaN,NaN, NaN, NaN
20060723,002922,1384141,33.979065,-123.061553,24.2,17.702,33.379,43.709,692.68,0.0,2.542,17.464, NaN, NaN,24.103,   NaN,17.24,1010.22,98.08,17.24,286.0,293.0,9.4,7.1,303.5,299.5,9.4,6.9,NaN, NaN,15.0,49.0,56.2,1153614562,1153614561,2,9.8,001762,001761,49.0,33.979028,-123.061713,10.17,NaN,NaN,17.706, NaN,NaN,NaN, NaN, NaN
20060723,002951,1384170,33.979771,-123.060175,24.2,17.692,33.380,43.700,668.12,0.0,2.616,17.464, NaN, NaN,24.106,   NaN,17.22,1010.22,98.08,17.24,290.0,299.0,9.1,8.1,305.3,308.6,8.8,7.2,NaN, NaN,15.0,49.3,62.5,1153614591,1153614590,2,10.8,001791,001790,49.3,33.979736,-123.060335,10.10,NaN,NaN,17.696, NaN,NaN,NaN, NaN, NaN
20060723,003021,1384200,33.980510,-123.058795,24.9,17.696,33.376,43.699,636.66,0.0,2.635,17.461, NaN, NaN,24.103,   NaN,17.24,1010.27,98.08,17.24,294.0,296.0,9.3,7.9,310.2,305.9,8.6,7.3,NaN, NaN,15.0,49.0,57.9,1153614621,1153614620,2,9.9,001821,001820,49.0,33.980468,-123.058948,9.97,NaN,NaN,17.700, NaN,NaN,NaN, NaN, NaN
20060723,003051,1384230,33.981253,-123.057407,24.8,17.688,33.379,43.695,624.07,0.0,2.616,17.455, NaN, NaN,24.107,   NaN,17.22,1010.27,98.11,17.22,300.0,304.0,9.2,8.4,316.3,316.8,8.0,7.0,NaN, NaN,16.0,49.5,51.7,1153614651,1153614650,2,10.0,001851,001850,49.5,33.981206,-123.057562,9.99,NaN,NaN,17.692, NaN,NaN,NaN, NaN, NaN
20060723,003121,1384260,33.981966,-123.056015,24.3,17.679,33.385,43.693,634.26,0.0,2.598,17.440, NaN, NaN,24.113,   NaN,17.24,1010.30,98.11,17.24,298.0,302.0,9.2,8.6,314.4,315.9,8.2,7.3,NaN, NaN,16.0,49.5,59.0,1153614681,1153614680,2,10.0,001881,001880,49.5,33.981931,-123.056170,9.87,NaN,NaN,17.683, NaN,NaN,NaN, NaN, NaN
20060723,003151,1384291,33.982723,-123.054637,24.7,17.666,33.388,43.684,655.53,0.0,2.598,17.421, NaN, NaN,24.119,   NaN,17.22,1010.38,98.08,17.22,301.0,303.0,10.3,9.2,320.4,318.2,8.8,7.7,NaN, NaN,18.0,49.0,55.2,1153614711,1153614710,2,10.0,001911,001910,49.0,33.982676,-123.054777,9.89,NaN,NaN,17.670, NaN,NaN,NaN, NaN, NaN
20060723,003221,1384321,33.983456,-123.053248,24.3,17.637,33.392,43.661,649.84,0.0,2.467,17.403, NaN, NaN,24.129,   NaN,17.30,1010.45,98.05,17.30,295.0,301.0,9.9,8.4,313.6,313.3,9.0,7.2,NaN, NaN,19.0,49.4,56.6,1153614741,1153614740,2,9.9,001941,001940,49.4,33.983410,-123.053395,10.07,NaN,NaN,17.641, NaN,NaN,NaN, NaN, NaN
20060723,003251,1384350,33.984176,-123.051852,24.2,17.599,33.401,43.636,605.80,0.0,2.467,17.384, NaN, NaN,24.145,   NaN,17.24,1010.27,98.11,17.24,303.0,308.0,8.7,8.7,316.2,321.2,7.3,6.9,NaN, NaN,20.0,49.0,61.1,1153614771,1153614770,2,10.4,001971,001970,49.0,33.984136,-123.051993,9.85,NaN,NaN,17.603, NaN,NaN,NaN, NaN, NaN
20060723,003322,1384382,33.984941,-123.050428,25.0,17.575,33.406,43.618,592.62,0.0,2.523,17.369, NaN, NaN,24.155,   NaN,17.27,1010.49,98.11,17.27,306.0,309.0,9.2,10.1,323.2,330.0,7.5,8.0,NaN, NaN,21.0,50.4,65.5,1153614802,1153614801,2,9.7,002002,002001,50.4,33.984901,-123.050575,9.97,NaN,NaN,17.579, NaN,NaN,NaN, NaN, NaN
20060723,003351,1384410,33.985651,-123.049088,24.6,17.562,33.408,43.607,591.42,0.0,2.598,17.363, NaN, NaN,24.159,   NaN,17.22,1010.43,98.02,17.22,299.0,304.0,10.5,9.9,320.5,323.6,9.2,8.2,NaN, NaN,20.0,49.9,57.1,1153614831,1153614830,2,9.6,002031,002030,49.7,33.985611,-123.049230,9.98,NaN,NaN,17.566, NaN,NaN,NaN, NaN, NaN
20060723,003421,1384440,33.986398,-123.047728,24.7,17.549,33.408,43.596,607.00,0.0,2.616,17.366, NaN, NaN,24.162,   NaN,17.24,1010.47,98.11,17.24,292.0,304.0,10.5,9.9,313.3,323.2,9.8,8.2,NaN, NaN,19.0,49.5,54.1,1153614861,1153614860,2,9.6,002061,002060,49.5,33.986355,-123.047882,9.86,NaN,NaN,17.553, NaN,NaN,NaN, NaN, NaN
20060723,003451,1384471,33.987133,-123.046365,24.1,17.556,33.404,43.598,622.88,0.0,2.560,17.363, NaN, NaN,24.158,   NaN,17.27,1010.49,98.08,17.27,296.0,309.0,8.6,10.0,310.6,329.1,7.9,7.9,NaN, NaN,20.0,49.5,57.9,1153614891,1153614890,2,9.7,002091,002090,49.5,33.987088,-123.046503,9.97,NaN,NaN,17.560, NaN,NaN,NaN, NaN, NaN
20060723,003521,1384501,33.987885,-123.044993,24.8,17.579,33.400,43.616,631.56,0.0,2.672,17.359, NaN, NaN,24.149,   NaN,17.24,1010.35,98.02,17.24,294.0,300.0,9.9,9.6,314.4,319.3,9.1,8.3,NaN, NaN,19.0,50.5,55.2,1153614921,1153614920,2,9.6,002121,002120,50.5,33.987848,-123.045150,9.98,NaN,NaN,17.583, NaN,NaN,NaN, NaN, NaN
20060723,003551,1384530,33.988623,-123.043617,24.6,17.572,33.404,43.612,641.15,0.0,2.747,17.353, NaN, NaN,24.154,   NaN,17.22,1010.30,98.02,17.22,293.0,300.0,10.3,9.4,314.5,318.2,9.5,8.2,NaN, NaN,19.0,50.9,55.6,1153614951,1153614950,2,9.8,002151,002150,50.9,33.988585,-123.043772,10.20,NaN,NaN,17.576, NaN,NaN,NaN, NaN, NaN
20060723,003621,1384560,33.989355,-123.042247,24.5,17.559,33.410,43.607,648.04,0.0,2.728,17.353, NaN, NaN,24.161,   NaN,17.24,1010.38,98.02,17.24,288.0,292.0,9.1,7.3,305.3,301.0,8.9,7.1,NaN, NaN,19.0,49.4,52.4,1153614981,1153614980,2,9.6,002181,002180,49.4,33.989315,-123.042395,9.89,NaN,NaN,17.563, NaN,NaN,NaN, NaN, NaN
20060723,003651,1384590,33.990095,-123.040867,24.7,17.559,33.408,43.605,681.60,0.0,2.710,17.346, NaN, NaN,24.160,   NaN,17.24,1010.25,98.08,17.24,294.0,296.0,8.9,7.8,310.3,307.0,8.3,7.2,NaN, NaN,19.0,50.2,59.4,1153615011,1153615010,2,9.7,002211,002210,50.2,33.990065,-123.041030,9.93,NaN,NaN,17.563, NaN,NaN,NaN, NaN, NaN